Location: Frankfurt am Main
(50.1109°N, 8.6821°E)
Time: 13:05:57
(UTC+01:00)

ISS - Pass Details

Date: 01 November 2021
Orbit: 417 x 422 km, 51.6° (Epoch: 07 December)

Event Time Altitude Azimuth Distance (km) Brightness Sun altitude
Exits shadow 06:16:07 15° 285° (WNW) 1,242 -2.0 -9.9°
Maximum altitude 06:18:50 77° 11° (N) 435 -3.7 -9.5°
Drops below altitude 10° 06:22:12 10° 98° (E) 1,497 0.7 -9.0°
Sets 06:24:18 0° 100° (E) 2,358 2.6 -8.6°
